Regional Weather Roundup
Issued by NWS

Home | Current Version | Previous Version | Text Only | Print | Product List | Glossary Off
Versions: 1 2 3 4 5 6 7 8 9 10 11 12 13 14 15 16 17 18 19 20 21 22 23 24 25 26 27 28 29 30 31 32 33 34 35 36 37 38 39 40 41 42 43 44 45 46 47 48 49 50

000
ASUS45 KBOU 310407
RWRCO

WEATHER ROUNDUP FOR COLORADO
NATIONAL WEATHER SERVICE DENVER/BOULDER CO
1000 PM MDT SAT AUG 30 2014

NOTE: "FAIR" INDICATES FEW OR NO CLOUDS BELOW 12000 FEET WITH NO
SIGNIFICANT WEATHER AND/OR OBSTRUCTIONS TO VISIBILITY.

COZ001>005-013-030-031-310500-
...NORTHWEST COLORADO...

CITY           SKY/WX    TMP DP  RH WIND       PRES   REMARKS
CRAIG          MOCLDY    59  47  64 E7        30.01S
HAYDEN         MOCLDY    59  43  55 SE9       30.04S
MEEKER         MOCLDY    63  44  50 VRB3      30.02F
MOUNT WERNER   NOT AVBL
STEAMBOAT SPGS PTCLDY    54  46  73 N3        30.08S
WALDEN         PTCLDY    50  41  71 S7        30.15F
$$

COZ006>008-011-310500-
...WEST CENTRAL VALLEYS...

CITY           SKY/WX    TMP DP  RH WIND       PRES   REMARKS
GRAND JUNCTION MOCLDY    71  51  49 E8        29.90S
MONTROSE       CLEAR     67  41  38 SE13      30.04S
EAGLE          PTCLDY    54  52  94 SE3       30.12F
RIFLE          MOCLDY    66  47  50 E13       30.00S
DELTA          CLEAR     74  42  31 NE10      29.98S
NUCLA          CLEAR     70  34  26 S6        30.07R
$$

COZ017>023-064>068-310500-
...SOUTHWEST COLORADO...

CITY           SKY/WX    TMP DP  RH WIND       PRES   REMARKS
DURANGO        MOCLDY    64  41  42 N6        30.13R
CORTEZ         CLEAR     62  44  51 NE3       30.08R
PAGOSA SPRINGS MOCLDY    60  36  41 CALM      30.22R
TELLURIDE      CLEAR     57  34  41 CALM      30.31R
WOLF CREEK PAS PTCLDY    46  30  53 SW23      30.51S
$$

COZ009-010-012-014-032>034-037-058>063-310500-
...CENTRAL COLORADO...

CITY           SKY/WX    TMP DP  RH WIND       PRES   REMARKS
ASPEN          PTCLDY    49  42  77 SW6       30.17F
BUENA VISTA    PTCLDY    51  42  70 W5        30.22S
COPPER MTN     CLEAR     48  32  53 SW13G20   30.46F
BERTHOUD PASS  FAIR      41  39  93 W20G39    30.46S
COTTONWOOD PAS PTCLDY    59  34  38 S6        30.34F
GUNNISON       PTCLDY    54  41  62 N7        30.23R
KREMMLING      PTCLDY    54  41  62 SE3       30.15F
LEADVILLE      CLEAR     42  36  79 VRB3      30.32S
MONARCH PASS   PTCLDY    45  34  65 W22       30.58S
SALIDA         PTCLDY    60  41  49 NW3       30.25S
SUNLIGHT       MOCLDY    48  41  76 CALM      30.37F
WILKERSON PASS NOT AVBL
$$

COZ069>075-310500-
...SAN LUIS VALLEY/SANGRE DE CRISTO MOUNTAINS...

CITY           SKY/WX    TMP DP  RH WIND       PRES   REMARKS
ALAMOSA        CLOUDY    59  46  62 S5        30.19S
LA VETA PASS   NOT AVBL
SAGUACHE       NOT AVBL
$$

COZ035-036-038>040-310500-
...NORTHERN COLORADO FRONT RANGE...

CITY           SKY/WX    TMP DP  RH WIND       PRES   REMARKS
DENVER INTL AP CLOUDY    69  45  41 VRB3G17   29.98F
DMNS CITY PARK   N/A     68  44  41 S3        29.99S
AURORA         MOCLDY    67  46  46 S9        30.02F
FRONT RANGE AP NOT AVBL
ERIE MUNI ARPT CLOUDY    63  57  80 CALM      29.97F
BOULDER MUN AP CLOUDY    64  48  55 W8        29.99F
CENTENNIAL     CLOUDY    66  45  46 S9        30.04F
BROOMFIELD     CLOUDY    64  50  59 CALM      30.01F
FORT COLLINS   CLOUDY    64  50  59 W3        29.98R
LONGMONT       CLOUDY    66  48  52 W6        29.99F
$$

COZ041-046-047-076>085-087-088-310500-
...PIKES PEAK/PALMER DIVIDE AND SOUTHERN FOOTHILLS...

CITY           SKY/WX    TMP DP  RH WIND       PRES   REMARKS
COLO. SPRINGS  CLOUDY    70  41  34 N8        30.07F
A. F. ACADEMY  CLOUDY    63  44  49 N5        30.10S
ELLICOTT       CLOUDY    71  44  37 NE10      30.07S
FALCON         CLOUDY    64  44  46 NE3       30.12F
FORT CARSON    CLOUDY    68  51  54 NE8       30.04S
LIMON          CLOUDY    70  47  43 W12       30.03R
MONUMENT HILL  CLOUDY    59  45  58 CALM      30.13S
TRINIDAD       CLOUDY    72  41  32 NW7       30.02R
$$

COZ042>045-048>051-090-091-310500-
...NORTHEAST COLORADO...

CITY           SKY/WX    TMP DP  RH WIND       PRES   REMARKS
GREELEY ARPT   CLOUDY    64  50  59 CALM      29.96S
AKRON          CLOUDY    72  47  40 W6G26     29.96R
BURLINGTON     PTCLDY    72  51  47 S21G28    29.94R
WRAY             N/A     74  55  51 W14G25    29.90R
STERLING       CLOUDY    72  54  53 S3        29.89F
HOLYOKE        PTCLDY    77  52  41 S7        29.88R
FORT MORGAN    CLOUDY    70  49  48 W18G25    29.99R
$$

COZ086-089-092>099-310500-
...SOUTHEAST COLORADO...

CITY           SKY/WX    TMP DP  RH WIND       PRES   REMARKS
PUEBLO         CLOUDY    80  40  23 CALM      29.95R
LA JUNTA       MOCLDY    76  48  37 SE6       29.87S
LAMAR          PTCLDY    79  49  34 S16       29.84R
SPRINGFIELD      N/A     72  51  47 S14       29.94R
$$



USA.gov is the U.S. government's official web portal to all federal, state and local government web resources and services.